Regional Weather Roundup
Issued by NWS State College, PA

Home | Current Version | Previous Version | Graphics & Text | Print | Product List | Glossary Off
Versions: 1 2 3 4 5 6 7 8 9 10 11 12 13 14 15 16 17 18 19 20 21 22 23 24 25 26 27 28 29 30 31 32 33 34 35 36 37 38 39 40 41 42 43 44 45 46 47 48 49 50

000
ASUS41 KCTP 201210
RWRCTP

REGIONAL WEATHER ROUNDUP
NATIONAL WEATHER SERVICE STATE COLLEGE PA
800 AM EDT SUN APR 20 2014

Note: "fair" indicates few or no clouds below 12,000 feet with no
significant weather and/or obstructions to visibility.

* = STATION THAT DOES NOT REPORT PRECIPITATION /E.G. RAIN...SNOW...ETC/
    THUNDER OR FOG.

PAZ002>004-007>009-013>016-020>023-029>032-201300-
WESTERN PENNSYLVANIA

CITY           SKY/WX    TMP DP  RH WIND       PRES   REMARKS
ERIE           SUNNY     48  24  39 SE14      30.35R
MEADVILLE      SUNNY     45  24  43 VRB6      30.35R
FRANKLIN*      SUNNY     43  25  49 SE8       30.38R
NEW CASTLE     FAIR      46  28  49 E6        30.37R
BEAVER COUNTY  NOT AVBL
BUTLER*        SUNNY     45  25  45 E7        30.37R
PITTSBURGH INT PTSUNNY   46  29  51 E3        30.35R
PITTSBURGH     SUNNY     48  26  42 N3        30.34R
INDIANA*       SUNNY     45  27  49 E6        30.37R
LATROBE        SUNNY     50  25  37 CALM      30.34S
WASHINGTON CO* SUNNY     36  32  87 CALM      30.36R
$$

PAZ004>006-010>012-017>019-024>028-033>037-041-042-045-046-049>053-201300-
CENTRAL PENNSYLVANIA

CITY           SKY/WX    TMP DP  RH WIND       PRES   REMARKS
BRADFORD       SUNNY     37  26  64 SE6       30.37S
DUBOIS         SUNNY     43  27  53 E7        30.37R
CLEARFIELD     SUNNY     36  27  69 N8        30.40R
JOHNSTOWN      SUNNY     42  24  49 E5        30.35R
ALTOONA        MOSUNNY   41  30  65 CALM      30.40R
STATE COLLEGE  SUNNY     39  27  60 CALM      30.43R
WILLIAMSPORT   SUNNY     38  30  73 CALM      30.44S
SELINSGROVE    MOSUNNY   41  31  67 CALM      30.45R
FT INDIANTOWN  NOT AVBL
CAPITAL CITY   MOSUNNY   47  28  47 E7        30.43R
HARRISBURG     PTSUNNY   49  27  42 NE6       30.42R
YORK           MOSUNNY   46  32  58 CALM      30.41R
$$

PAZ038>040-043-044-047-048-054-055-060>062-067>071-201300-
EASTERN PENNSYLVANIA

CITY           SKY/WX    TMP DP  RH WIND       PRES   REMARKS
SCRANTON       SUNNY     42  25  50 VRB6      30.44R
MOUNT POCONO   MOSUNNY   41  23  48 E13G20    30.41R
ALLENTOWN      MOSUNNY   46  28  49 NE8       30.46R
QUAKERTOWN*    PTSUNNY   46  36  66 E6        30.45R
READING        MOSUNNY   49  30  48 E6        30.42S
LANCASTER      MOSUNNY   47  30  51 E13       30.41R
COATESVILLE    PTSUNNY   46  30  53 E15G22    30.42R
POTTSTOWN      PTSUNNY   47  33  58 E10G16    30.46R
BLUE BELL      PTSUNNY   48  32  53 E9G16     30.44R
DOYLESTOWN     PTSUNNY   45  34  65 VRB3      30.44R
WILLOW GROVE   NOT AVBL
NORTH PHILA    CLOUDY    49  29  46 E12       30.46R
PHILADELPHIA   CLOUDY    48  31  51 E13       30.45R
$$



USA.gov is the U.S. government's official web portal to all federal, state and local government web resources and services.